Weather History for Eureka, NU

Change the Weather History Date:

Monday, May 20, 2013

  Actual Average Record
Temperature  
Mean Temperature 12 °F -  
Max Temperature 19 °F 33 °F 33 °F (2005)
Min Temperature 6 °F 23 °F 6 °F (2001)
Degree Days  
Heating Degree Days 52    
Moisture  
Dew Point 10 °F    
Average Humidity 80    
Maximum Humidity 86    
Minimum Humidity 70    
Precipitation  
Precipitation 0.00 in 0.01 in - ()
Sea Level Pressure  
Sea Level Pressure 30.37 in    
Wind  
Wind Speed 2 mph ()    
Max Wind Speed 6 mph    
Max Gust Speed -    
Visibility 15.0 miles    
Events      
Averages and records for this station are not official NWS values.
T = Trace of Precipitation, MM = Missing Value Source: Averaged Metar Reports

Daily Weather History Graph

Daily Weather History Graph

Search for Another Location

Airport:

Trip Planner

Search our weather history database for the weather conditions in past years. The results will help you decide how hot, cold, wet, or windy it might be!

Date:

Astronomy

Dec. 31, 1969 Rise Set
Actual Time Sun does not rise Sun does not rise
Civil Twilight Sun does not rise Sun does not rise
Nautical Twilight Sun does not rise Sun does not rise
Astronomical Twilight Sun does not rise Sun does not rise
Moon 4:39 PM CDT (5/20) 1:44 AM CDT (5/20)
Length of Visible Light 24h 00m
Length of Day
24h 00m
Waxing Gibbous, 75% of the Moon is Illuminated
May 20
Waxing Gibbous
May 24
Full
May 31
Last Quarter
Jun 8
New
Jun 16
First Quarter

Hourly Weather History & Observations

Time (CDT) Temp. Windchill Dew Point Humidity Pressure Visibility Wind Dir Wind Speed Gust Speed Precip Events Conditions
1:00 AM 12 °F - 7 °F 70% 30.32 in 15 mi North 4.6 mph - -   Scattered Clouds
1:00 AM 12.2 °F 4.3 °F 6.8 °F 79% 30.32 in 15.0 mi North 4.6 mph - N/A   Partly Cloudy
2:00 AM 8.6 °F - 3.2 °F 79% 30.33 in 15.0 mi Calm Calm - N/A   Partly Cloudy
3:00 AM 12.2 °F - 6.8 °F 79% 30.34 in 15.0 mi Calm Calm - N/A   Partly Cloudy
4:00 AM 8.6 °F - 3.2 °F 79% 30.34 in 15.0 mi West 2.3 mph - N/A   Partly Cloudy
5:00 AM 12.2 °F - 6.8 °F 79% 30.35 in 15.0 mi Calm Calm - N/A   Partly Cloudy
6:00 AM 12.2 °F - 6.8 °F 79% 30.35 in 15.0 mi Calm Calm - N/A   Partly Cloudy
7:00 AM 9 °F - 5 °F 76% 30.36 in 15 mi Calm Calm - -   Scattered Clouds
7:00 AM 8.6 °F - 5.0 °F 85% 30.36 in 15.0 mi West 2.3 mph - N/A   Partly Cloudy
8:00 AM 14.0 °F 8.2 °F 10.4 °F 86% 30.36 in 15.0 mi NNW 3.5 mph - N/A   Partly Cloudy
9:00 AM 15.8 °F - 10.4 °F 79% 30.36 in 15.0 mi Calm Calm - N/A   Partly Cloudy
10:00 AM 14.0 °F 5.1 °F 10.4 °F 86% 30.36 in 15.0 mi SSW 5.8 mph - N/A   Partly Cloudy
11:00 AM 14.0 °F 6.5 °F 10.4 °F 86% 30.37 in 15.0 mi SSW 4.6 mph - N/A   Partly Cloudy
12:00 PM 15.8 °F 8.6 °F 12.2 °F 86% 30.37 in 15.0 mi South 4.6 mph - N/A   Partly Cloudy
1:00 PM 17 °F - 13 °F 76% 30.38 in 15 mi SSW 4.6 mph - -   Scattered Clouds
1:00 PM 17.6 °F 10.7 °F 12.2 °F 79% 30.38 in 15.0 mi SSW 4.6 mph - N/A   Partly Cloudy
2:00 PM 17.6 °F - 14.0 °F 86% 30.38 in 15.0 mi Calm Calm - N/A   Partly Cloudy
3:00 PM 17.6 °F - 12.2 °F 79% 30.38 in 15.0 mi SSW 2.3 mph - N/A   Partly Cloudy
4:00 PM 19.4 °F - 14.0 °F 80% 30.39 in 15.0 mi East 2.3 mph - N/A   Partly Cloudy
5:00 PM 17.6 °F 12.3 °F 14.0 °F 86% 30.39 in 15.0 mi SSW 3.5 mph - N/A   Partly Cloudy
6:00 PM 17.6 °F 10.7 °F 14.0 °F 86% 30.40 in 15.0 mi South 4.6 mph - N/A   Scattered Clouds
7:00 PM 18 °F - 13 °F 72% 30.41 in 15 mi South 3.5 mph - -   Clear
7:00 PM 19.4 °F 14.3 °F 12.2 °F 74% 30.41 in 15.0 mi South 3.5 mph - N/A   Mostly Cloudy
8:00 PM 17.6 °F - 12.2 °F 79% 30.41 in 15.0 mi South 2.3 mph - N/A   Mostly Cloudy
9:00 PM 17.6 °F 12.3 °F 12.2 °F 79% 30.42 in 15.0 mi SSW 3.5 mph - N/A   Mostly Cloudy
10:00 PM 17.6 °F 10.7 °F 12.2 °F 79% 30.42 in 15.0 mi South 4.6 mph - N/A   Mostly Cloudy